Погода Облучье

Погода Облучье : погода сейчас, прогноз погоды и архив. Всё, что Вы хотите узнать о погоде Облучье!

Хотите узнать прогноз погоды Облучье? Тогда Вам сюда: Погода Облучье

Поиск расширенной информации на нашем сайте:

Другие новости

Новости СМИ2

Главная страница сайта

Новости сайта

03.07.2017

Напоминаем, что на нашем специализированном сайте Метеоцентр.Азия вы можете получить высокодетализированные автоматические прогнозы погоды по пунктам России, СНГ и мира в авиационном формате (включающие направление и скорость ветра, видимость, явления погоды, количество и форму облачности, нижнюю и верхнюю границу облачности).


Погода Облучье - сегодня

Время (UTC), дата Ветер
(°,м/с) 
Видим.   Явления Облачность Т
(°С)
Тd
(°С)
f(%) Тe
(°С)
Pmin
(гПа)
dP
(гПа)
Po
(мм)
O2
(г/м3)
Тmin Tmax R s Состояние
почвы
06 20.04.18 220 (ЮЗ) 20000 м  {дождь}  10/0 средняя 
[As op]
+16.6 +2.1 38 +18  1004.3  -3.3  730  277           
12 20.04.18 330 (СЗ) 20000 м    10/0 средняя 
[As op]
+13.5 +1.4 44 +14  1003.1  -0.1  729  280           
15 20.04.18 310 (СЗ) 10 км  слаб. дождь  10/0 средняя 
[As op]
+9.8 +5.4 74 +9  1005.2  1.7  730  283           
18 20.04.18 330 (СЗ) 20000 м  {дождь}  10/0 средняя 
[As op]
+5.9 +0.3 67 +6  1007.6  1.8  732  288           
06 21.04.18 320 (СЗ) 6-11{14}  20000 м    ясно 
+11.5 -13.6 16 +10  1015.9  1.2  738  287           
12 21.04.18 320 (СЗ) 20000 м    ясно 
+5.1 -11.9 28 +5  1021.6  742  294           
15 21.04.18 тихо ()   20000 м    ясно 
-1.5 -9.6 54 -2  1024.1  1.7  743  302           
18 21.04.18 010 (С) 20000 м    ясно 
-5.4 -9 76 -5  1026.1  1.5  744  307           
00 22.04.18 170 (Ю) 20000 м    ясно 
+5.7 -10.4 30 +7  1027.1  0.5  746  295           
03 22.04.18 310 (СЗ) 5-11{12}  20000 м    ясно 
+11.5 -13.7 16 +10  1025.5  -0.9  745  289           
06 22.04.18 320 (СЗ) 5-12{14}  20000 м    ясно 
+13.1 -13.6 14 +12  1023.5  -1.7  744  287           
12 22.04.18 360 (С) 20000 м    ясно 
+2.5 -10.5 38 +1  1026.4  745  298           
15 22.04.18 350 (С) 20000 м    ясно 
-1.4 -10.1 52 -2  1028  1.1  746  303           
18 22.04.18 010 (С) 20000 м    ясно 
-1.9 -10.4 52 -3  1028.6  0.6  746  304           
00 23.04.18 тихо ()   20000 м    4/0 верхняя 
[Cc]
+10.1 -11.6 20 +10  1026.4  -0.8  746  291           
03 23.04.18 140 (ЮВ) 20000 м    4/0 верхняя 
[Ci fib]
+15.4 -11.9 14 +16  1023.3  -2.4  744  285           
06 23.04.18 270 (З) 10 км    10/0 верхняя 
[Ci fib]
+18 -10.8 13 +19  1019.2  -3.7  741  281           
12 23.04.18 010 (С) 10 км    6/0 верхняя 
[Ci fib]
+5.8 -5.4 44 +7  1018.8  0.6  740  292           
15 23.04.18 010 (С) 20000 м    ясно 
+2.8 -6.5 50 +2  1019.3  0.1  740  296           
18 23.04.18 010 (С) 20000 м    ясно 
+1 -6.1 59 1018.7  -0.8  739  297           
00 24.04.18 050 (СВ) 20000 м    3/0 средняя 
[Ac trans]
+16.7 -6.2 20 +18  1014.4  -1.6  737  281           
03 24.04.18 340 (С) 20000 м    10/0 верхняя 
[Ci fib]
+21.6 -8.4 13 +22  1011.8  -2  736  276           
06 24.04.18 280 (З) 20000 м    10/0 верхняя 
[Cs]
+23 -10.8 10 +23  1009.2  -2.4  734  274           
12 24.04.18 010 (С) 20000 м    6/0 верхняя 
[Ci fib]
+8.1 -4.8 40 +8  1010.6  1.1  734  288           
15 24.04.18 360 (С) 20000 м    ясно 
+5.7 -6.2 42 +5  1011.2  0.3  734  290           
Время (UTC), дата Ветер
(°,м/с) 
Видим.   Явления Облачность Т
(°С)
Тd
(°С)
f(%) Тe
(°С)
Pmin
(гПа)
dP
(гПа)
Po
(мм)
O2
(г/м3)
Тmin Tmax R s Состояние
почвы

Для получения пояснительной информации подведите курсор к названию столбца.

ПОГОДА Облучье - архив

Всё, что Вы хотите узнать о погоде Облучье - удобно и подробно!

Выберите нужную дату (начиная с 1 января 2015* года) и нажмите кнопку "Найти".
Будут отображены архивные сводки погоды по пункту Облучье, начиная с указанной даты.


Отображать данные в формате CSV (для использования в таблицах Excel)


Внимание! Наш архив погоды предназначен исключительно для личного некоммерческого использования в познавательных целях. Если Вам необходимы официальные справки о состоянии погоды (для производственных, юридических, коммерческих и т.п. целей), обращайтесь в органы Росгидромета.

*Примечание: данная дата относится к архиву по метеостанциям СССР (Россия, СНГ, Балтия).
Архив по метеостанциям Зарубежной Европы и Азии (кроме Китая) хранится 10 дней, по другим регионам земного шара (Китай, Африка, Америка, Австралия, Океания) - 1 день.

Облучье - район местоположения метеостанции


Название, широта, долгота, высота метеостанции:
Облучье 49°ш. 131.1°д. 257 м над ур. моря [Российская Федерация]

Дополнительная информация

В oтличие oт бoльшинства пoгoдных сайтoв мы публикуем пoдрoбную метеoинфoрмацию в детальнoм прoфессиoнальнoм фoрмате.

Характеристики температуры и влажнoсти вoздуха измеряются на высoте 2 м в тени вдали oт зданий и деревьев.
Скoрoсть ветра измеряется на высoте 10 м (на урoвне рoста челoвека скoрoсть ветра ниже в 1.5-2 раза). Если метеoстанция нахoдится в гoрoде или в лесу, тo скoрoсть ветра занижена на 2-4 м/с пo сравнению с oткрытым местoм. Скoрoсть ветра над акватoриями крупных рек и oзёр, а также на вершинах хoлмoв на 2-5 м/с выше, чем в oбычных услoвиях.
Атмoсфернoе давление в разных тoчках местнoсти мoжет значительнo oтличаться oт давления на метеoстанции, в зависимoсти oт услoвий рельефа (при пoдъёме на 10 м давление пoнижается примернo на 1 мм рт.ст.).